Weather History for Keahole Point, HI

Change the Weather History Date:

Friday, November 23, 2012

  Actual Average Record
Temperature  
Mean Temperature 78 °F -  
Max Temperature 84 °F 81 °F 89 °F (1986)
Min Temperature 73 °F 70 °F 63 °F (2007)
Cooling Degree Days 14    
Growing Degree Days 28 (Base 50)    
Moisture  
Dew Point 68 °F    
Average Humidity 72    
Maximum Humidity 79    
Minimum Humidity 60    
Precipitation  
Precipitation 0.00 in - - ()
Sea Level Pressure  
Sea Level Pressure 29.93 in    
Wind  
Wind Speed 8 mph (SSE)    
Max Wind Speed 18 mph    
Max Gust Speed 20 mph    
Visibility 10 miles    
Events Rain    
Averages and records for this station are not official NWS values.
T = Trace of Precipitation, MM = Missing Value Source: NWS Daily Summary

Daily Weather History Graph

Daily Weather History Graph

Search for Another Location

Airport:

Trip Planner

Search our weather history database for the weather conditions in past years. The results will help you decide how hot, cold, wet, or windy it might be!

Date:

Astronomy

Nov. 23, 2012 Rise Set
Actual Time 6:37 AM HST 5:43 PM HST
Civil Twilight 6:14 AM HST 6:07 PM HST
Nautical Twilight 5:47 AM HST 6:34 PM HST
Astronomical Twilight 5:20 AM HST 7:00 PM HST
Moon 2:38 PM HST (11/23) 2:36 AM HST (11/23)
Length of Visible Light 11h 52m
Length of Day
11h 05m
Waxing Gibbous, 81% of the Moon is Illuminated
Nov 23
Waxing Gibbous
Nov 28
Full
Dec 6
Last Quarter
Dec 12
New
Dec 19
First Quarter

Hourly Weather History & Observations

Time (HST) Temp. Heat Index Dew Point Humidity Pressure Visibility Wind Dir Wind Speed Gust Speed Precip Events Conditions
12:53 AM 73.9 °F - 66.0 °F 76% 29.94 in 10.0 mi NNE 9.2 mph - N/A   Clear
1:53 AM 75.0 °F - 64.9 °F 71% 29.93 in 10.0 mi NNE 8.1 mph - N/A   Clear
2:53 AM 73.9 °F - 64.9 °F 73% 29.91 in 10.0 mi NNE 6.9 mph - N/A   Clear
3:53 AM 75.0 °F - 64.0 °F 69% 29.91 in 10.0 mi NE 6.9 mph - N/A   Scattered Clouds
4:53 AM 73.9 °F - 64.0 °F 71% 29.91 in 10.0 mi NE 5.8 mph - N/A   Clear
5:53 AM 73.0 °F - 64.0 °F 73% 29.92 in 10.0 mi NNE 9.2 mph - N/A   Clear
6:53 AM 73.0 °F - 64.9 °F 76% 29.94 in 10.0 mi North 10.4 mph - N/A   Clear
7:53 AM 77.0 °F - 64.0 °F 64% 29.95 in 10.0 mi Calm Calm - N/A   Partly Cloudy
8:53 AM 81.0 °F 83.3 °F 66.9 °F 62% 29.94 in 10.0 mi SSE 11.5 mph - N/A   Clear
9:53 AM 82.0 °F 85.5 °F 69.1 °F 65% 29.95 in 10.0 mi South 10.4 mph 19.6 mph N/A   Clear
10:53 AM 82.9 °F 86.5 °F 69.1 °F 63% 29.94 in 10.0 mi South 15.0 mph - N/A   Clear
11:53 AM 82.9 °F 85.8 °F 68.0 °F 60% 29.92 in 10.0 mi South 17.3 mph - N/A   Clear
12:53 PM 82.9 °F 87.0 °F 70.0 °F 65% 29.91 in 10.0 mi South 17.3 mph - N/A   Clear
1:53 PM 84.0 °F 88.4 °F 70.0 °F 63% 29.88 in 10.0 mi SSW 18.4 mph - N/A   Scattered Clouds
2:53 PM 82.0 °F 85.5 °F 69.1 °F 65% 29.88 in 10.0 mi SSW 15.0 mph - N/A   Clear
3:53 PM 82.0 °F 85.5 °F 69.1 °F 65% 29.88 in 10.0 mi SSW 11.5 mph - N/A   Clear
4:53 PM 81.0 °F 84.1 °F 69.1 °F 67% 29.90 in 10.0 mi SSW 6.9 mph - N/A   Clear
5:53 PM 78.1 °F - 70.0 °F 76% 29.93 in 10.0 mi SW 5.8 mph - N/A   Mostly Cloudy
6:53 PM 78.1 °F - 70.0 °F 76% 29.95 in 10.0 mi SW 4.6 mph - N/A   Overcast
7:53 PM 78.1 °F - 70.0 °F 76% 29.96 in 10.0 mi South 5.8 mph - N/A   Clear
8:53 PM 78.1 °F - 70.0 °F 76% 29.96 in 10.0 mi South 4.6 mph - N/A   Partly Cloudy
9:53 PM 77.0 °F - 70.0 °F 79% 29.97 in 10.0 mi SE 3.5 mph - N/A   Mostly Cloudy
10:32 PM 77.0 °F - 69.8 °F 78% 29.96 in 10.0 mi ESE 4.6 mph - N/A   Scattered Clouds
10:48 PM 77.0 °F - 69.8 °F 78% 29.96 in 10.0 mi ESE 3.5 mph - N/A   Mostly Cloudy
10:53 PM 77.0 °F - 70.0 °F 79% 29.96 in 10.0 mi Calm Calm - N/A   Mostly Cloudy
11:05 PM 77.0 °F - 69.8 °F 78% 29.96 in 10.0 mi Calm Calm - N/A   Mostly Cloudy
11:15 PM 77.0 °F - 69.8 °F 78% 29.96 in 10.0 mi Calm Calm - N/A   Mostly Cloudy
11:29 PM 77.0 °F - 69.8 °F 78% 29.96 in 10.0 mi Calm Calm - 0.00 in Rain Light Rain
11:53 PM 77.0 °F - 70.0 °F 79% 29.96 in 10.0 mi Calm Calm - 0.00 in   Overcast